Austin, MN

8:44 AM CDT on July 20, 2017 (GMT -0500)
Austin Municipal

Weather History for KAUM - April, 2013

Change the Weather History Date:

Tuesday, April 23, 2013

  Actual Average Record
Temperature  
Mean Temperature 34 °F -  
Max Temperature 39 °F 58 °F 82 °F (2009)
Min Temperature 30 °F 36 °F 28 °F (2015)
Degree Days  
Heating Degree Days 30    
Moisture  
Dew Point 27 °F    
Average Humidity 74    
Maximum Humidity 93    
Minimum Humidity 56    
Precipitation  
Precipitation 0.00 in - - ()
Sea Level Pressure  
Sea Level Pressure 30.07 in    
Wind  
Wind Speed 15 mph (NNW)    
Max Wind Speed 21 mph    
Max Gust Speed 30 mph    
Visibility 10 miles    
Events Snow    
Averages and records for this station are not official NWS values.
T = Trace of Precipitation, MM = Missing Value Source: NWS Daily Summary

Daily Weather History Graph

Daily Weather History Graph

Search for Another Location

Airport or City:

Trip Planner

Search our weather history database for the weather conditions in past years. The results will help you decide how hot, cold, wet, or windy it might be!

Date:

Astronomy

Apr. 23, 2013 Rise Set
Actual Time 6:15 AM CDT 8:05 PM CDT
Civil Twilight 5:45 AM CDT 8:35 PM CDT
Nautical Twilight 5:07 AM CDT 9:13 PM CDT
Astronomical Twilight 4:27 AM CDT 9:54 PM CDT
Moon 5:57 PM CDT (4/23) 4:48 AM CDT (4/23)
Length of Visible Light 14h 50m
Length of Day
13h 49m
Waxing Gibbous, 94% of the Moon is Illuminated
Apr 23
Waxing Gibbous
Apr 25
Full
May 2
Last Quarter
May 9
New
May 17
First Quarter

Hourly Weather History & Observations

Time (CDT) Temp. Windchill Dew Point Humidity Pressure Visibility Wind Dir Wind Speed Gust Speed Precip Events Conditions
12:15 AM 33.8 °F 23.2 °F 30.2 °F 87% 30.04 in 4.0 mi NNW 17.3 mph 21.9 mph N/A Snow Light Snow
12:36 AM 33.8 °F 23.5 °F 30.2 °F 87% 30.04 in 7.0 mi NNW 16.1 mph 24.2 mph N/A Snow Light Snow
12:55 AM 33.8 °F 22.8 °F 30.2 °F 87% 30.03 in 7.0 mi NNW 18.4 mph 27.6 mph N/A   Overcast
1:15 AM 33.8 °F 23.5 °F 30.2 °F 87% 30.07 in 5.0 mi NNW 16.1 mph 27.6 mph N/A Snow Light Snow
1:36 AM 33.8 °F 22.2 °F 30.2 °F 87% 30.06 in 7.0 mi NNW 20.7 mph 26.5 mph N/A   Overcast
1:55 AM 33.8 °F 23.9 °F 30.2 °F 87% 30.03 in 5.0 mi NNW 15.0 mph 24.2 mph N/A   Overcast
2:15 AM 33.8 °F 23.5 °F 30.2 °F 87% 30.06 in 5.0 mi NNW 16.1 mph 23.0 mph N/A Snow Light Snow
2:36 AM 33.8 °F 23.2 °F 30.2 °F 87% 30.07 in 10.0 mi NNW 17.3 mph 25.3 mph N/A   Overcast
2:55 AM 33.8 °F 23.5 °F 30.2 °F 87% 30.05 in 10.0 mi NNW 16.1 mph 24.2 mph N/A   Overcast
3:16 AM 33.8 °F 22.8 °F 30.2 °F 87% 30.05 in 10.0 mi NNW 18.4 mph 24.2 mph N/A   Overcast
3:36 AM 33.8 °F 22.5 °F 30.2 °F 87% 30.06 in 10.0 mi NNW 19.6 mph 24.2 mph N/A   Overcast
3:55 AM 33.8 °F 23.2 °F 28.4 °F 81% 30.04 in 10.0 mi NNW 17.3 mph 28.8 mph N/A   Overcast
4:16 AM 33.8 °F 23.2 °F 28.4 °F 81% 30.06 in 10.0 mi NNW 17.3 mph 24.2 mph N/A   Overcast
4:35 AM 33.8 °F 22.8 °F 28.4 °F 81% 30.06 in 10.0 mi NNW 18.4 mph 29.9 mph N/A   Overcast
4:55 AM 33.8 °F 23.9 °F 28.4 °F 81% 30.07 in 10.0 mi NNW 15.0 mph 26.5 mph N/A   Overcast
5:15 AM 33.8 °F 24.8 °F 32.0 °F 93% 30.10 in 10.0 mi NNW 12.7 mph 20.7 mph N/A   Overcast
5:36 AM 32.0 °F 22.1 °F 28.4 °F 87% 30.09 in 10.0 mi NNW 13.8 mph 25.3 mph N/A   Overcast
5:55 AM 32.0 °F 19.8 °F 28.4 °F 87% 30.09 in 10.0 mi NNW 20.7 mph 28.8 mph N/A   Overcast
6:15 AM 32.0 °F 21.2 °F 28.4 °F 87% 30.09 in 10.0 mi NNW 16.1 mph 29.9 mph N/A   Overcast
6:36 AM 32.0 °F 22.1 °F 28.4 °F 87% 30.09 in 10.0 mi NNW 13.8 mph 27.6 mph N/A   Overcast
6:55 AM 32.0 °F 21.6 °F 28.4 °F 87% 30.08 in 10.0 mi NNW 15.0 mph 23.0 mph N/A   Overcast
7:15 AM 32.0 °F 20.8 °F 28.4 °F 87% 30.09 in 10.0 mi NNW 17.3 mph 24.2 mph N/A   Overcast
7:36 AM 32.0 °F 21.2 °F 28.4 °F 87% 30.09 in 10.0 mi NNW 16.1 mph 21.9 mph N/A   Overcast
7:55 AM 32.0 °F 20.8 °F 26.6 °F 80% 30.08 in 10.0 mi North 17.3 mph 23.0 mph N/A   Overcast
8:15 AM 32.0 °F 20.8 °F 26.6 °F 80% 30.09 in 10.0 mi NNW 17.3 mph 27.6 mph N/A   Overcast
8:36 AM 32.0 °F 22.1 °F 26.6 °F 80% 30.10 in 10.0 mi NNW 13.8 mph 25.3 mph N/A   Overcast
8:55 AM 32.0 °F 20.5 °F 26.6 °F 80% 30.10 in 10.0 mi NNW 18.4 mph 24.2 mph N/A   Overcast
9:15 AM 32.0 °F 22.1 °F 26.6 °F 80% 30.10 in 10.0 mi NNW 13.8 mph 23.0 mph N/A   Overcast
9:36 AM 30.2 °F 18.1 °F 26.6 °F 86% 30.10 in 10.0 mi NNW 18.4 mph 23.0 mph N/A   Overcast
9:55 AM 32.0 °F 24.2 °F 26.6 °F 80% 30.10 in 10.0 mi North 9.2 mph 24.2 mph N/A   Overcast
10:15 AM 32.0 °F 23.0 °F 26.6 °F 80% 30.10 in 10.0 mi North 11.5 mph 24.2 mph N/A   Overcast
10:36 AM 33.8 °F 24.8 °F 26.6 °F 75% 30.11 in 7.0 mi North 12.7 mph 20.7 mph N/A   Overcast
10:55 AM 33.8 °F 24.8 °F 28.4 °F 81% 30.10 in 10.0 mi North 12.7 mph 20.7 mph N/A   Overcast
11:15 AM 33.8 °F 25.3 °F 26.6 °F 75% 30.10 in 10.0 mi North 11.5 mph 19.6 mph N/A   Mostly Cloudy
11:36 AM 35.6 °F 26.2 °F 28.4 °F 75% 30.10 in 10.0 mi NNW 15.0 mph 23.0 mph N/A   Mostly Cloudy
11:55 AM 35.6 °F 26.6 °F 28.4 °F 75% 30.09 in 10.0 mi North 13.8 mph 18.4 mph N/A   Mostly Cloudy
12:16 PM 35.6 °F 27.5 °F 28.4 °F 75% 30.09 in 10.0 mi NNW 11.5 mph 21.9 mph N/A   Mostly Cloudy
12:35 PM 37.4 °F 28.2 °F 28.4 °F 70% 30.10 in 10.0 mi NW 16.1 mph 21.9 mph N/A   Mostly Cloudy
12:56 PM 37.4 °F 28.9 °F 28.4 °F 70% 30.09 in 10.0 mi NW 13.8 mph 19.6 mph N/A   Mostly Cloudy
1:15 PM 37.4 °F 28.2 °F 30.2 °F 75% 30.08 in 10.0 mi NNW 16.1 mph 19.6 mph N/A   Mostly Cloudy
1:36 PM 39.2 °F 31.6 °F 30.2 °F 70% 30.08 in 10.0 mi NNW 12.7 mph - N/A   Mostly Cloudy
1:55 PM 39.2 °F 30.8 °F 28.4 °F 65% 30.08 in 10.0 mi NW 15.0 mph 19.6 mph N/A   Mostly Cloudy
2:15 PM 39.2 °F 29.8 °F 28.4 °F 65% 30.08 in 10.0 mi NNW 18.4 mph 25.3 mph N/A   Mostly Cloudy
2:35 PM 39.2 °F 31.2 °F 28.4 °F 65% 30.08 in 10.0 mi NNW 13.8 mph 23.0 mph N/A   Scattered Clouds
2:56 PM 39.2 °F 31.6 °F 28.4 °F 65% 30.07 in 10.0 mi NNW 12.7 mph 23.0 mph N/A   Scattered Clouds
3:15 PM 39.2 °F 29.8 °F 26.6 °F 61% 30.07 in 10.0 mi NNW 18.4 mph - N/A   Scattered Clouds
3:35 PM 39.2 °F 30.8 °F 28.4 °F 65% 30.07 in 10.0 mi NW 15.0 mph 26.5 mph N/A   Scattered Clouds
3:56 PM 39.2 °F 31.2 °F 28.4 °F 65% 30.07 in 10.0 mi North 13.8 mph 19.6 mph N/A   Mostly Cloudy
4:15 PM 39.2 °F 30.5 °F 26.6 °F 61% 30.07 in 10.0 mi NNW 16.1 mph 19.6 mph N/A   Mostly Cloudy
4:36 PM 39.2 °F 30.5 °F 26.6 °F 61% 30.06 in 10.0 mi NNW 16.1 mph 21.9 mph N/A   Mostly Cloudy
4:55 PM 39.2 °F 30.5 °F 24.8 °F 56% 30.06 in 10.0 mi NNW 16.1 mph 20.7 mph N/A   Mostly Cloudy
5:15 PM 37.4 °F 28.5 °F 24.8 °F 60% 30.06 in 10.0 mi NNW 15.0 mph 23.0 mph N/A   Scattered Clouds
5:36 PM 37.4 °F 29.8 °F 24.8 °F 60% 30.06 in 10.0 mi NNW 11.5 mph - N/A   Scattered Clouds
5:55 PM 39.2 °F 33.6 °F 24.8 °F 56% 30.05 in 10.0 mi North 8.1 mph 17.3 mph N/A   Scattered Clouds
6:15 PM 39.2 °F 32.0 °F 24.8 °F 56% 30.06 in 10.0 mi NW 11.5 mph 21.9 mph N/A   Mostly Cloudy
6:36 PM 37.4 °F 29.8 °F 23.0 °F 56% 30.06 in 10.0 mi North 11.5 mph 17.3 mph N/A   Mostly Cloudy
6:55 PM 37.4 °F 30.3 °F 24.8 °F 60% 30.06 in 10.0 mi NW 10.4 mph 18.4 mph N/A   Scattered Clouds
7:15 PM 37.4 °F 29.8 °F 23.0 °F 56% 30.06 in 10.0 mi NW 11.5 mph - N/A   Scattered Clouds
7:36 PM 35.6 °F 29.2 °F 23.0 °F 60% 30.06 in 10.0 mi NW 8.1 mph 18.4 mph N/A   Scattered Clouds
7:55 PM 35.6 °F 28.0 °F 21.2 °F 56% 30.06 in 10.0 mi NW 10.4 mph - N/A   Clear
8:15 PM 35.6 °F 27.5 °F 21.2 °F 56% 30.06 in 10.0 mi NW 11.5 mph - N/A   Clear
8:36 PM 35.6 °F 29.2 °F 23.0 °F 60% 30.07 in 10.0 mi NW 8.1 mph - N/A   Clear
8:55 PM 33.8 °F 27.0 °F 24.8 °F 70% 30.07 in 10.0 mi NW 8.1 mph - N/A   Clear
9:15 PM 33.8 °F 27.7 °F 23.0 °F 65% 30.08 in 10.0 mi NW 6.9 mph - N/A   Clear
9:23 PM 33.8 °F 27.7 °F 23.0 °F 65% 30.08 in 10.0 mi NW 6.9 mph - N/A   Clear
9:41 PM 33.8 °F 27.7 °F 23.0 °F 65% 30.08 in 10.0 mi NW 6.9 mph - N/A   Clear
10:01 PM 33.8 °F 27.7 °F 23.0 °F 65% 30.07 in 10.0 mi NW 6.9 mph - N/A   Clear
10:21 PM 33.8 °F 27.7 °F 23.0 °F 65% 30.08 in 10.0 mi WNW 6.9 mph - N/A   Clear
10:46 PM 32.0 °F 26.4 °F 24.8 °F 75% 30.07 in 10.0 mi WNW 5.8 mph - N/A   Clear
10:56 PM 32.0 °F 24.8 °F 24.8 °F 75% 30.07 in 10.0 mi WNW 8.1 mph - N/A   Clear
11:15 PM 32.0 °F 25.6 °F 24.8 °F 75% 30.07 in 10.0 mi WNW 6.9 mph - N/A   Clear
11:36 PM 32.0 °F 24.8 °F 26.6 °F 80% 30.07 in 10.0 mi WNW 8.1 mph - N/A   Clear
11:56 PM 32.0 °F 25.6 °F 26.6 °F 80% 30.06 in 10.0 mi WNW 6.9 mph - N/A   Clear